Regional Weather Roundup
Issued by NWS

Home | Current Version | Previous Version | Text Only | Print | Product List | Glossary Off
Versions: 1 2 3 4 5 6 7 8 9 10 11 12 13 14 15 16 17 18 19 20 21 22 23 24 25 26 27 28 29 30 31 32 33 34 35 36 37 38 39 40 41 42 43 44 45 46 47 48 49 50

000
ASUS45 KTFX 041304
RWRMT
MONTANA REGIONAL WEATHER ROUNDUP
NATIONAL WEATHER SERVICE GREAT FALLS MT
700 AM MDT FRI SEP 04 2015

NOTE: "FAIR" INDICATES FEW OR NO CLOUDS BELOW 12000 FEET WITH NO
SIGNIFICANT WEATHER AND/OR OBSTRUCTIONS TO VISIBILITY.

MTZ001>007-043-041400-
WEST OF THE DIVIDE

CITY           SKY/WX    TMP DP  RH WIND       PRES   REMARKS
KALISPELL      CLOUDY    46  41  82 W5        29.97S
MISSOULA       CLOUDY    43  42  97 W3        29.98R FOG
BUTTE          CLOUDY    44  41  89 S3        29.99R
MULLAN PASS    CLEAR     37  33  85 N6        29.97S
DEER LODGE       N/A     45  45 100 CALM      30.01R
EUREKA           N/A     45  43  93 CALM      30.02R
HAMILTON         N/A     45  45 100 NE3       29.96R
LIBBY            N/A     39  37  93 CALM      30.00S
$$

MTZ008-052>055-041400-
SOUTHWEST MONTANA

CITY           SKY/WX    TMP DP  RH WIND       PRES   REMARKS
BOZEMAN        CLOUDY    48  45  89 S6        29.96R
DILLON         CLOUDY    47  44  90 NE6       29.95S
W YELLOWSTONE  PTCLDY    36  36 100 CALM      29.96S FOG
$$

MTZ009-010-012-014-046-048-049-054-041400-
EAST SLOPES AND CENTRAL MONTANA

CITY           SKY/WX    TMP DP  RH WIND       PRES   REMARKS
CUT BANK       CLOUDY    48  47  96 E3        29.98S
GREAT FALLS    CLOUDY    48  47  96 N7        29.97R
MALMSTROM AFB  CLOUDY    49  48  95 N8        29.97R
HELENA         CLOUDY    50  46  86 S3        29.97R
$$

MTZ011-013-016-021-045-047-050-051-041400-
NORTH CENTRAL MONTANA

CITY           SKY/WX    TMP DP  RH WIND       PRES   REMARKS
HAVRE          CLOUDY    50  48  93 E7        29.97S
LEWISTOWN      CLOUDY    48  43  82 N7        29.99R
N BAR RANCH    CLOUDY    48  45  87 NW6       30.00S
CHINOOK          N/A     52  48  87 CALM      29.98F
FORT BENTON      N/A     52  48  87 CALM      29.98R
$$

MTZ017>020-022>027-061-062-041400-
NORTHEAST MONTANA

CITY           SKY/WX    TMP DP  RH WIND       PRES   REMARKS
GLASGOW        PTCLDY    52  44  74 NW15      29.93R
JORDAN           N/A     51  42  71 N12       29.93R
SIDNEY         CLOUDY    63  52  67 W15         N/A
WOLF POINT     MOCLDY    58  44  60 N5        29.91R
PLENTYWOOD       N/A     54  48  82 NW8       29.88R
POPLAR           N/A     55  46  71 NW5       29.90R
$$

MTZ028>42-056>058-041400-
SOUTHCENTRAL AND SOUTHEAST MONTANA

CITY           SKY/WX    TMP DP  RH WIND       PRES   REMARKS
BAKER          LGT RAIN  65  61  87 W9        29.86R
BILLINGS       MOCLDY    50  45  83 N7        29.95R
LIVINGSTON     CLOUDY    49  46  90 CALM      29.95R
MILES CITY     CLOUDY    60  45  57 N10       29.86R
FORSYTH          N/A     57  43  58 W6        29.89R
$$

REGIONAL REPORTS...DAKOTAS

CITY           SKY/WX    TMP DP  RH WIND       PRES   REMARKS
WILLISTON      CLOUDY    65  55  70 S8G24     29.81R
MINOT          CLOUDY    67  62  84 NW15      29.78R
DICKINSON      CLOUDY    64  59  83 NW8       29.80R THUNDER
BISMARCK       CLOUDY    71  70  96 E5        29.74R
GRAND FORKS    MOSUNNY   73  70  90 SE10      29.78R
FARGO          MOSUNNY   75  71  87 SE13      29.76S
BUFFALO SD       N/A     61  59  93 W8        29.76R
RAPID CITY     MOCLDY    67  53  61 CALM      29.79S
$$

REGIONAL REPORTS...WYOMING/IDAHO/WASHINGTON

CITY           SKY/WX    TMP DP  RH WIND       PRES   REMARKS
GILLETTE       CLEAR     55  43  63 W8        29.91R
SHERIDAN       CLEAR     54  42  64 NW3       29.93R
BUFFALO WY     CLEAR     55  44  66 NW9       29.96R
CODY           PTCLDY    48  45  87 NE8       29.96R
YELLOWSTONE LA   N/A     38  36  92 CALM      30.03S
IDAHO FALLS    PTCLDY    51  39  63 S8        29.89R
SALMON         CLOUDY    46  45  93 CALM      29.97R
BOISE          CLOUDY    51  38  60 W5        29.85R
SPOKANE        PTCLDY    44  35  70 E5        29.95S
$$

REGIONAL REPORTS...ALBERTA

CITY           SKY/WX    TMP DP  RH WIND       PRES   REMARKS
EDMONTON       LGT RAIN  43  37  81 N2        30.13R
$$

REGIONAL REPORTS...SASKATCHEWAN

CITY           SKY/WX    TMP DP  RH WIND       PRES   REMARKS
$$



USA.gov is the U.S. government's official web portal to all federal, state and local government web resources and services.